• In Österreich
  • Länderverzeichnis
  • Für 7 Tage
  • Wassertemperatur
  • Satellitenkarten
  • Wetterkarte
  • News
  • Widgets
  • user-avatar
    Anmelden

    Stündliche Wetter Joro

    Heute, 26 September, Mittwoch

    Zeit Temperatur Niederschläge Wind Luftdruck Luftfeuchtigkeit
    00:00 +20°C° 0.9 mm 0 m/S 699 mmHg 97%
    01:00 +20°C° 0.1 mm 0 m/S 699 mmHg 97%
    02:00 +20°C° 0.1 mm 0 m/S 699 mmHg 97%
    03:00 +20°C° 0.1 mm 0 m/S 698 mmHg 97%
    04:00 +19°C° 0 mm 0 m/S 699 mmHg 97%
    05:00 +19°C° 0 mm 0 m/S 699 mmHg 97%
    06:00 +19°C° 0 mm 0 m/S 699 mmHg 97%
    07:00 +21°C° 0 mm 0 m/S 700 mmHg 89%
    08:00 +23°C° 0 mm 0 m/S 700 mmHg 82%
    09:00 +25°C° 0 mm 0 m/S 701 mmHg 74%
    10:00 +26°C° 0.2 mm 0 m/S 701 mmHg 71%
    11:00 +27°C° 0.2 mm 0 m/S 701 mmHg 68%
    12:00 +29°C° 0.2 mm 1 m/S 700 mmHg 65%
    13:00 +29°C° 1.3 mm 1 m/S 700 mmHg 71%
    14:00 +28°C° 1.3 mm 1 m/S 699 mmHg 76%
    15:00 +27°C° 1.3 mm 1 m/S 698 mmHg 82%
    16:00 +26°C° 1.9 mm 1 m/S 698 mmHg 86%
    17:00 +25°C° 1.9 mm 1 m/S 698 mmHg 91%
    18:00 +21°C° 1.9 mm 0 m/S 698 mmHg 95%
    19:00 +21°C° 1.4 mm 0 m/S 699 mmHg 96%
    20:00 +21°C° 1.4 mm 0 m/S 699 mmHg 96%
    21:00 +21°C° 1.4 mm 0 m/S 700 mmHg 97%
    22:00 +20°C° 0.1 mm 0 m/S 699 mmHg 97%
    23:00 +20°C° 0.1 mm 0 m/S 699 mmHg 97%

    Morgen, 27 September, Donnerstag

    Zeit Temperatur Niederschläge Wind Luftdruck Luftfeuchtigkeit
    00:00 +20°C° 0.1 mm 0 m/S 699 mmHg 97%
    01:00 +19°C° 0 mm 0 m/S 698 mmHg 97%
    02:00 +19°C° 0 mm 0 m/S 698 mmHg 97%
    03:00 +19°C° 0 mm 0 m/S 698 mmHg 97%
    04:00 +19°C° 0 mm 0 m/S 698 mmHg 98%
    05:00 +19°C° 0 mm 0 m/S 698 mmHg 98%
    06:00 +19°C° 0 mm 0 m/S 699 mmHg 98%
    07:00 +21°C° 0 mm 0 m/S 699 mmHg 88%
    08:00 +24°C° 0 mm 0 m/S 700 mmHg 78%
    09:00 +26°C° 0 mm 0 m/S 701 mmHg 68%
    10:00 +29°C° 0 mm 1 m/S 701 mmHg 63%
    11:00 +30°C° 0 mm 1 m/S 700 mmHg 57%
    12:00 +31°C° 0 mm 1 m/S 700 mmHg 52%
    13:00 +30°C° 0.4 mm 1 m/S 699 mmHg 57%
    14:00 +30°C° 0.4 mm 1 m/S 698 mmHg 62%
    15:00 +29°C° 0.4 mm 2 m/S 698 mmHg 67%
    16:00 +27°C° 1 mm 1 m/S 698 mmHg 75%
    17:00 +25°C° 1 mm 1 m/S 698 mmHg 83%
    18:00 +24°C° 1 mm 1 m/S 698 mmHg 91%
    19:00 +23°C° 0.7 mm 1 m/S 699 mmHg 93%
    20:00 +21°C° 0.7 mm 0 m/S 699 mmHg 95%
    21:00 +20°C° 0.7 mm 0 m/S 700 mmHg 97%
    22:00 +20°C° 0.1 mm 0 m/S 700 mmHg 97%
    23:00 +20°C° 0.1 mm 0 m/S 700 mmHg 97%

    übermorgen, 28 September, Freitag

    Zeit Temperatur Niederschläge Wind Luftdruck Luftfeuchtigkeit
    00:00 +19°C° 0.1 mm 0 m/S 699 mmHg 97%
    01:00 +19°C° 0 mm 0 m/S 699 mmHg 97%
    02:00 +19°C° 0 mm 0 m/S 698 mmHg 97%
    03:00 +19°C° 0 mm 0 m/S 698 mmHg 97%
    04:00 +19°C° 0 mm 0 m/S 698 mmHg 97%
    05:00 +19°C° 0 mm 0 m/S 699 mmHg 97%
    06:00 +19°C° 0 mm 0 m/S 699 mmHg 97%
    07:00 +21°C° 0 mm 0 m/S 700 mmHg 86%
    08:00 +24°C° 0 mm 0 m/S 701 mmHg 76%
    09:00 +27°C° 0 mm 0 m/S 702 mmHg 65%
    10:00 +29°C° 0.1 mm 1 m/S 701 mmHg 63%
    11:00 +29°C° 0.1 mm 1 m/S 701 mmHg 62%
    12:00 +30°C° 0.1 mm 1 m/S 700 mmHg 60%
    13:00 +29°C° 1 mm 1 m/S 699 mmHg 67%
    14:00 +28°C° 1 mm 1 m/S 699 mmHg 74%
    15:00 +28°C° 1 mm 1 m/S 698 mmHg 81%
    16:00 +26°C° 1.3 mm 1 m/S 698 mmHg 86%
    17:00 +25°C° 1.3 mm 1 m/S 698 mmHg 90%
    18:00 +24°C° 1.3 mm 1 m/S 699 mmHg 95%
    19:00 +23°C° 1.7 mm 1 m/S 699 mmHg 96%
    20:00 +21°C° 1.7 mm 0 m/S 700 mmHg 97%
    21:00 +21°C° 1.7 mm 0 m/S 700 mmHg 97%
    22:00 +21°C° 1.1 mm 0 m/S 700 mmHg 97%
    23:00 +20°C° 1.1 mm 0 m/S 700 mmHg 98%

    29 September, Samstag

    Zeit Temperatur Niederschläge Wind Luftdruck Luftfeuchtigkeit
    00:00 +20°C° 1.1 mm 0 m/S 699 mmHg 98%
    01:00 +20°C° 0.5 mm 0 m/S 699 mmHg 98%
    02:00 +20°C° 0.5 mm 0 m/S 699 mmHg 98%
    03:00 +19°C° 0.5 mm 0 m/S 698 mmHg 98%
    04:00 +19°C° 0 mm 0 m/S 699 mmHg 98%
    05:00 +19°C° 0 mm 0 m/S 699 mmHg 98%
    06:00 +19°C° 0 mm 0 m/S 699 mmHg 98%
    07:00 +21°C° 0 mm 0 m/S 700 mmHg 89%
    08:00 +24°C° 0 mm 0 m/S 700 mmHg 80%
    09:00 +28°C° 0 mm 1 m/S 701 mmHg 70%
    10:00 +28°C° 0.3 mm 1 m/S 701 mmHg 69%
    11:00 +29°C° 0.3 mm 1 m/S 700 mmHg 67%
    12:00 +30°C° 0.3 mm 1 m/S 699 mmHg 65%
    13:00 +29°C° 1.3 mm 1 m/S 699 mmHg 70%
    14:00 +29°C° 1.3 mm 1 m/S 698 mmHg 75%
    15:00 +28°C° 1.3 mm 1 m/S 698 mmHg 79%
    16:00 +27°C° 1.9 mm 1 m/S 698 mmHg 84%
    17:00 +25°C° 1.9 mm 1 m/S 698 mmHg 89%
    18:00 +24°C° 1.9 mm 1 m/S 699 mmHg 94%
    19:00 +23°C° 2.2 mm 1 m/S 699 mmHg 95%
    20:00 +21°C° 2.2 mm 0 m/S 699 mmHg 96%
    21:00 +21°C° 2.2 mm 0 m/S 700 mmHg 98%
    22:00 +20°C° 1.6 mm 0 m/S 700 mmHg 98%
    23:00 +20°C° 1.6 mm 0 m/S 699 mmHg 98%

    30 September, Sonntag

    Zeit Temperatur Niederschläge Wind Luftdruck Luftfeuchtigkeit
    00:00 +20°C° 1.6 mm 0 m/S 699 mmHg 98%
    01:00 +20°C° 0.4 mm 0 m/S 699 mmHg 98%
    02:00 +20°C° 0.4 mm 0 m/S 698 mmHg 98%
    03:00 +20°C° 0.4 mm 0 m/S 698 mmHg 98%
    04:00 +20°C° 0 mm 0 m/S 699 mmHg 98%
    05:00 +20°C° 0 mm 0 m/S 699 mmHg 98%
    06:00 +19°C° 0 mm 0 m/S 699 mmHg 98%
    07:00 +22°C° 0 mm 0 m/S 700 mmHg 89%
    08:00 +24°C° 0 mm 0 m/S 700 mmHg 81%
    09:00 +26°C° 0 mm 0 m/S 701 mmHg 72%
    10:00 +29°C° 0.3 mm 1 m/S 701 mmHg 70%
    11:00 +29°C° 0.3 mm 1 m/S 700 mmHg 68%
    12:00 +30°C° 0.3 mm 1 m/S 700 mmHg 65%
    13:00 +29°C° 1.2 mm 1 m/S 699 mmHg 69%
    14:00 +29°C° 1.2 mm 1 m/S 698 mmHg 73%
    15:00 +28°C° 1.2 mm 1 m/S 698 mmHg 77%
    16:00 +27°C° 1.2 mm 1 m/S 698 mmHg 83%
    17:00 +25°C° 1.2 mm 1 m/S 698 mmHg 88%
    18:00 +24°C° 1.2 mm 1 m/S 699 mmHg 93%
    19:00 +23°C° 1.1 mm 1 m/S 699 mmHg 94%
    20:00 +21°C° 1.1 mm 0 m/S 700 mmHg 96%
    21:00 +20°C° 1.1 mm 0 m/S 700 mmHg 97%
    22:00 +20°C° 0.2 mm 0 m/S 700 mmHg 98%
    23:00 +20°C° 0.2 mm 0 m/S 700 mmHg 98%

    1 Oktober, Montag

    Zeit Temperatur Niederschläge Wind Luftdruck Luftfeuchtigkeit
    00:00 +20°C° 0.2 mm 0 m/S 699 mmHg 98%
    01:00 +20°C° 0 mm 0 m/S 699 mmHg 98%
    02:00 +20°C° 0 mm 0 m/S 699 mmHg 98%
    03:00 +20°C° 0 mm 0 m/S 699 mmHg 98%
    04:00 +20°C° 0 mm 0 m/S 699 mmHg 98%
    05:00 +19°C° 0 mm 0 m/S 699 mmHg 98%
    06:00 +19°C° 0 mm 0 m/S 700 mmHg 98%
    07:00 +21°C° 0 mm 0 m/S 700 mmHg 89%
    08:00 +25°C° 0 mm 1 m/S 701 mmHg 80%
    09:00 +27°C° 0 mm 1 m/S 702 mmHg 71%
    10:00 +28°C° 0 mm 1 m/S 701 mmHg 66%
    11:00 +29°C° 0 mm 1 m/S 701 mmHg 61%
    12:00 +30°C° 0 mm 1 m/S 700 mmHg 56%
    13:00 +30°C° 0.3 mm 1 m/S 699 mmHg 60%
    14:00 +29°C° 0.3 mm 1 m/S 699 mmHg 64%
    15:00 +29°C° 0.3 mm 1 m/S 698 mmHg 68%
    16:00 +27°C° 0.8 mm 1 m/S 698 mmHg 76%
    17:00 +26°C° 0.8 mm 1 m/S 698 mmHg 84%
    18:00 +24°C° 0.8 mm 1 m/S 699 mmHg 92%
    19:00 +23°C° 0.5 mm 1 m/S 699 mmHg 94%
    20:00 +23°C° 0.5 mm 1 m/S 699 mmHg 95%
    21:00 +21°C° 0.5 mm 0 m/S 700 mmHg 97%
    22:00 +20°C° 0.2 mm 0 m/S 700 mmHg 98%
    23:00 +20°C° 0.2 mm 0 m/S 699 mmHg 98%
    Mehr zeigen